Point Pleasant, WV

5:24 PM EST on December 17, 2017 (GMT -0500)
Point Pleasant

Weather History for K3I2 - February, 2014

Change the Weather History Date:

Monday, February 17, 2014

  Actual Average (KHTS) Record (KHTS)
Temperature  
Mean Temperature 30 °F -  
Max Temperature 44 °F 45 °F 70 °F (1975)
Min Temperature 17 °F 29 °F -4 °F (1958)
Degree Days  
Heating Degree Days 34    
Moisture  
Dew Point 23 °F    
Average Humidity 65    
Maximum Humidity 87    
Minimum Humidity 42    
Precipitation  
Precipitation 0.00 in - - ()
Sea Level Pressure  
Sea Level Pressure 30.14 in    
Wind  
Wind Speed 4 mph (East)    
Max Wind Speed 23 mph    
Max Gust Speed 34 mph    
Visibility 9 miles    
Events Rain    
Averages and records for this station are not official NWS values.
T = Trace of Precipitation, MM = Missing Value Source: NWS Daily Summary

Daily Weather History Graph

Daily Weather History Graph

Search for Another Location

Airport or City:

Trip Planner

Search our weather history database for the weather conditions in past years. The results will help you decide how hot, cold, wet, or windy it might be!

Date:

Astronomy

Feb. 17, 2014 Rise Set
Actual Time 7:17 AM EST 6:08 PM EST
Civil Twilight 6:49 AM EST 6:35 PM EST
Nautical Twilight 6:18 AM EST 7:06 PM EST
Astronomical Twilight 5:47 AM EST 7:37 PM EST
Moon 8:59 PM EST 8:18 AM EST
Length of Visible Light 11h 45m
Length of Day
10h 50m
Waning Gibbous, 93% of the Moon is Illuminated
Feb 17
Waning Gibbous
Feb 22
Last Quarter
Mar 1
New
Mar 8
First Quarter
Mar 16
Full

Hourly Weather History & Observations

Time (EST) Temp. Windchill Dew Point Humidity Pressure Visibility Wind Dir Wind Speed Gust Speed Precip Events Conditions
12:15 AM 30.2 °F - 19.4 °F 64% 30.33 in 10.0 mi Calm Calm - N/A   Overcast
12:35 AM 30.2 °F - 19.4 °F 64% 30.34 in 10.0 mi Calm Calm - N/A   Overcast
12:55 AM 30.2 °F - 19.4 °F 64% 30.34 in 10.0 mi Calm Calm - N/A   Overcast
1:15 AM 30.2 °F - 19.4 °F 64% 30.34 in 10.0 mi Calm Calm - N/A   Overcast
1:35 AM 30.2 °F 25.4 °F 19.4 °F 64% 30.33 in 10.0 mi ENE 4.6 mph - N/A   Overcast
1:55 AM 30.2 °F - 19.4 °F 64% 30.33 in 10.0 mi Calm Calm - N/A   Overcast
2:15 AM 30.2 °F 26.7 °F 19.4 °F 64% 30.33 in 10.0 mi ENE 3.5 mph - N/A   Overcast
2:35 AM 30.2 °F 26.7 °F 19.4 °F 64% 30.34 in 10.0 mi NE 3.5 mph - N/A   Overcast
2:55 AM 28.4 °F 21.2 °F 17.6 °F 64% 30.33 in 10.0 mi NE 6.9 mph - N/A   Overcast
3:15 AM 28.4 °F 23.3 °F 17.6 °F 64% 30.33 in 10.0 mi NE 4.6 mph - N/A   Overcast
3:35 AM 26.6 °F 21.2 °F 17.6 °F 69% 30.33 in 10.0 mi NE 4.6 mph - N/A   Mostly Cloudy
3:55 AM 26.6 °F 22.6 °F 17.6 °F 69% 30.33 in 10.0 mi ENE 3.5 mph - N/A   Clear
4:15 AM 23.0 °F - 17.6 °F 80% 30.33 in 10.0 mi Calm Calm - N/A   Clear
4:35 AM 23.0 °F - 17.6 °F 80% 30.33 in 10.0 mi Calm Calm - N/A   Clear
4:55 AM 21.2 °F - 15.8 °F 80% 30.34 in 7.0 mi Calm Calm - N/A   Clear
5:15 AM 21.2 °F - 15.8 °F 80% 30.34 in 7.0 mi Calm Calm - N/A   Clear
5:35 AM 19.4 °F - 14.0 °F 80% 30.35 in 7.0 mi Calm Calm - N/A   Clear
5:55 AM 17.6 °F - 14.0 °F 86% 30.35 in 7.0 mi Calm Calm - N/A   Clear
6:15 AM 17.6 °F - 12.2 °F 79% 30.35 in 7.0 mi Calm Calm - N/A   Clear
6:35 AM 17.6 °F - 14.0 °F 86% 30.36 in 7.0 mi Calm Calm - N/A   Clear
6:55 AM 19.4 °F 14.3 °F 14.0 °F 80% 30.35 in 7.0 mi East 3.5 mph - N/A   Clear
7:15 AM 17.6 °F 12.3 °F 12.2 °F 79% 30.35 in 7.0 mi ENE 3.5 mph - N/A   Clear
7:35 AM 17.6 °F - 12.2 °F 79% 30.35 in 5.0 mi Calm Calm - N/A   Haze
7:55 AM 19.4 °F - 14.0 °F 80% 30.36 in 5.0 mi Calm Calm - N/A   Clear
8:15 AM 21.2 °F 16.4 °F 15.8 °F 80% 30.35 in 5.0 mi East 3.5 mph - N/A   Haze
8:35 AM 23.0 °F 17.0 °F 17.6 °F 80% 30.35 in 7.0 mi East 4.6 mph - N/A   Clear
8:55 AM 26.6 °F 20.0 °F 19.4 °F 74% 30.35 in 7.0 mi East 5.8 mph - N/A   Clear
9:15 AM 28.4 °F 20.4 °F 19.4 °F 69% 30.34 in 10.0 mi East 8.1 mph - N/A   Clear
9:35 AM 28.4 °F 21.2 °F 19.4 °F 69% 30.33 in 10.0 mi East 6.9 mph - N/A   Clear
9:55 AM 30.2 °F 23.4 °F 19.4 °F 64% 30.33 in 10.0 mi East 6.9 mph - N/A   Clear
10:15 AM 32.0 °F 25.6 °F 21.2 °F 64% 30.32 in 10.0 mi ENE 6.9 mph - N/A   Clear
10:35 AM 32.0 °F 24.2 °F 21.2 °F 64% 30.30 in 10.0 mi East 9.2 mph - N/A   Clear
10:55 AM 33.8 °F 25.8 °F 21.2 °F 60% 30.29 in 10.0 mi East 10.4 mph - N/A   Clear
11:15 AM 33.8 °F 27.0 °F 21.2 °F 60% 30.27 in 10.0 mi East 8.1 mph - N/A   Clear
11:35 AM 35.6 °F 29.2 °F 21.2 °F 56% 30.25 in 10.0 mi ENE 8.1 mph - N/A   Clear
11:55 AM 35.6 °F 28.6 °F 21.2 °F 56% 30.24 in 10.0 mi ENE 9.2 mph - N/A   Clear
12:15 PM 35.6 °F 29.2 °F 21.2 °F 56% 30.22 in 10.0 mi ENE 8.1 mph - N/A   Clear
12:35 PM 35.6 °F 29.2 °F 21.2 °F 56% 30.19 in 10.0 mi ENE 8.1 mph - N/A   Clear
12:55 PM 35.6 °F 28.0 °F 23.0 °F 60% 30.18 in 10.0 mi East 10.4 mph - N/A   Clear
1:15 PM 37.4 °F 30.8 °F 21.2 °F 52% 30.14 in 10.0 mi East 9.2 mph - N/A   Clear
1:35 PM 37.4 °F 30.8 °F 21.2 °F 52% 30.12 in 10.0 mi ESE 9.2 mph - N/A   Clear
1:55 PM 39.2 °F 32.5 °F 21.2 °F 49% 30.11 in 10.0 mi East 10.4 mph - N/A   Clear
2:15 PM 39.2 °F 33.0 °F 21.2 °F 49% 30.09 in 10.0 mi East 9.2 mph - N/A   Scattered Clouds
2:35 PM 39.2 °F 32.0 °F 21.2 °F 49% 30.06 in 10.0 mi East 11.5 mph - N/A   Scattered Clouds
2:55 PM 41.0 °F 34.7 °F 21.2 °F 45% 30.04 in 10.0 mi East 10.4 mph 17.3 mph N/A   Scattered Clouds
3:15 PM 41.0 °F 34.3 °F 21.2 °F 45% 30.02 in 10.0 mi East 11.5 mph - N/A   Mostly Cloudy
3:35 PM 42.8 °F 38.6 °F 21.2 °F 42% 30.02 in 10.0 mi ESE 6.9 mph - N/A   Scattered Clouds
3:55 PM 42.8 °F 38.0 °F 21.2 °F 42% 29.99 in 10.0 mi East 8.1 mph - N/A   Clear
4:15 PM 42.8 °F 38.6 °F 21.2 °F 42% 29.98 in 10.0 mi East 6.9 mph - N/A   Clear
4:35 PM 42.8 °F 39.3 °F 21.2 °F 42% 29.96 in 10.0 mi East 5.8 mph - N/A   Clear
4:55 PM 42.8 °F 39.3 °F 23.0 °F 46% 29.94 in 10.0 mi East 5.8 mph - N/A   Clear
5:15 PM 42.8 °F 38.6 °F 23.0 °F 46% 29.91 in 10.0 mi East 6.9 mph - N/A   Scattered Clouds
5:35 PM 42.8 °F 38.0 °F 23.0 °F 46% 29.89 in 10.0 mi East 8.1 mph - N/A   Scattered Clouds
5:55 PM 42.8 °F 37.5 °F 23.0 °F 46% 29.86 in 10.0 mi East 9.2 mph - N/A   Mostly Cloudy
6:15 PM 42.8 °F 38.0 °F 23.0 °F 46% 29.83 in 10.0 mi East 8.1 mph - N/A   Overcast
6:35 PM 42.8 °F 40.1 °F 24.8 °F 49% 29.83 in 10.0 mi East 4.6 mph - N/A Rain Light Rain
6:55 PM 41.0 °F - 30.2 °F 65% 29.82 in 5.0 mi Calm Calm - N/A Rain Light Rain
7:15 PM 37.4 °F - 33.8 °F 87% 29.84 in 3.0 mi Calm Calm - N/A Rain Rain
7:35 PM 37.4 °F 34.9 °F 33.8 °F 87% 29.83 in 3.0 mi East 3.5 mph - N/A Rain Light Rain
7:55 PM 37.4 °F - 33.8 °F 87% 29.82 in 4.0 mi Calm Calm - N/A Rain Light Rain
8:15 PM 39.2 °F - 35.6 °F 87% 29.82 in 7.0 mi Calm Calm - N/A Rain Light Rain
8:35 PM 41.0 °F - 33.8 °F 76% 29.84 in 7.0 mi Calm Calm - N/A Rain Light Rain
8:55 PM 42.8 °F 41.1 °F 35.6 °F 76% 29.82 in 10.0 mi SSE 3.5 mph - N/A Rain Light Rain
9:15 PM 44.6 °F 42.2 °F 33.8 °F 66% 29.81 in 10.0 mi SSE 4.6 mph - N/A   Overcast
9:35 PM 44.6 °F 40.7 °F 33.8 °F 66% 29.81 in 10.0 mi South 6.9 mph - N/A   Overcast
9:55 PM 44.6 °F 39.7 °F 35.6 °F 71% 29.82 in 10.0 mi South 9.2 mph - N/A Rain Light Rain
10:15 PM 44.6 °F 37.8 °F 35.6 °F 71% 29.84 in 10.0 mi SSW 15.0 mph 28.8 mph N/A Rain Light Rain
10:35 PM 44.6 °F 37.2 °F 37.4 °F 76% 29.89 in 10.0 mi WSW 17.3 mph 25.3 mph N/A Rain Light Rain
10:55 PM 44.6 °F 37.8 °F 37.4 °F 76% 29.90 in 10.0 mi WSW 15.0 mph 23.0 mph N/A   Overcast
11:15 PM 44.6 °F 37.2 °F 35.6 °F 71% 29.91 in 10.0 mi WSW 17.3 mph 29.9 mph N/A   Mostly Cloudy
11:35 PM 44.6 °F 35.9 °F 33.8 °F 66% 29.92 in 10.0 mi SW 23.0 mph 34.5 mph N/A   Scattered Clouds
11:55 PM 44.6 °F 38.1 °F 32.0 °F 61% 29.93 in 10.0 mi WSW 13.8 mph 26.5 mph N/A   Scattered Clouds